GSAT0206 (PRN E30)

Last updated on June 27, 2019, 3:44 a.m. UTC

1 40890U 15045B   19177.33414095 -.00000042  00000-0  00000+0 0  9996
2 40890  56.4370 291.9167 0000515  73.5301 286.4870  1.70475607 23606
UTC
Height (km)
Latitude
Longitude
Inclination
Orbital Period
UTC large
Height (km)
Speed (km/s)
/
Latitude / Longitude
Inclination (degrees)
Orbital Period (minutes)
Azimuth
Elevation
Range (km)
Doppler Factor
iOS Compass Heading
iOS Angle

Next 30 passes for location: Hong Kong

Rise time Rise Azimuth (degrees) Set time Set Azimuth (degrees) Duration Max altitude (degrees)

No matching passes for this satellites